BEIDOU-3 M5 (C23)

Last updated on Tue Aug 25 2026 00:03:25 GMT+0000 (Coordinated Universal Time)

1 43581U 18062A 26234.15259838 .00000001 00000+0 00000+0 0 9995 2 43581 54.0851 180.0624 0004835 303.5919 56.3361 1.86228756 54869
UTC large
Height (km)
Speed (km/s)
/
Latitude / Longitude
Inclination (degrees)
Orbital Period (minutes)
Azimuth
Elevation
Range (km)
Doppler Factor

Next 0 passes for location: London (51.5072 / 0.1276)

No passes found over London.
BEIDOU-3 M5 (C23)